GFSSW_850_spd_000.txt.gz
Wind_Speed
16 16 16 16 16 16 16 15 15 16 15 16 15 16 17 17 18 24 27 22 21 12 18 12 11 12 13 13 11 8 11 12 12 13 12 6 11 4 5 10 8 9 9 5 7
16 17 16 18 18 17 17 15 17 15 16 15 16 17 17 18 21 28 31 19 17 23 22 16 15 15 16 16 12 13 12 15 9 12 14 18 11 15 7 8 12 10 9 11 9
19 18 19 19 18 18 18 17 17 16 16 15 14 14 14 15 17 15 17 12 21 23 21 21 16 18 19 15 16 15 15 14 15 16 19 21 15 12 12 12 11 10 12 12 11
21 21 21 21 20 19 19 18 17 18 17 16 16 14 13 10 7 6 7 10 20 26 21 22 21 22 19 17 18 15 18 19 18 14 14 9 8 10 14 14 4 7 7 14 15
21 22 23 23 23 22 22 20 19 19 17 17 16 14 13 11 21 7 11 7 1 17 28 26 25 26 19 19 17 14 18 16 16 14 10 5 9 9 12 9 11 9 11 15 15
22 22 22 22 23 23 24 23 22 20 18 19 17 15 12 21 16 14 24 26 17 13 25 29 26 26 18 20 15 14 12 15 13 12 7 8 4 4 9 4 10 12 14 14 15
21 21 21 22 22 22 22 22 22 22 20 20 19 16 18 31 11 11 5 7 14 20 18 30 28 21 21 13 18 13 14 13 14 11 6 6 9 10 11 5 11 15 14 15 15
22 20 22 22 23 23 22 20 20 22 22 21 18 17 17 18 22 29 26 19 7 16 17 19 26 21 15 10 10 14 15 15 13 10 6 7 10 10 9 10 15 15 17 17 16
21 20 21 21 18 21 22 19 19 19 21 19 15 12 18 15 26 27 24 23 21 17 12 12 24 22 17 15 15 15 15 19 10 12 6 11 13 8 10 12 16 16 18 18 17
20 20 21 22 19 19 20 18 16 16 16 11 10 6 21 13 15 13 15 21 13 19 14 17 19 16 17 16 16 16 13 12 13 10 10 12 14 14 17 16 15 17 19 20 20
23 22 20 20 21 17 16 8 5 5 12 16 10 21 1 10 14 10 12 19 19 24 17 25 19 22 27 22 17 13 12 14 11 6 10 15 15 15 18 21 16 18 19 22 20
18 19 20 19 20 16 11 5 6 5 12 23 33 25 24 6 7 19 16 18 24 22 22 16 23 25 22 18 17 15 17 17 11 10 9 16 17 18 17 19 16 16 19 21 19
19 17 17 17 17 15 9 6 8 4 9 18 30 35 34 22 15 18 24 27 23 26 27 23 21 22 19 15 18 19 17 14 12 12 12 16 18 13 8 11 13 14 15 18 22
18 15 14 14 15 9 7 9 8 3 7 11 12 16 36 28 19 30 26 26 20 28 27 22 20 19 18 22 20 20 15 15 14 13 12 4 15 14 11 12 12 14 15 17 21
17 13 12 13 5 4 4 6 4 5 8 6 13 8 23 36 10 32 27 27 20 19 24 25 23 23 22 21 19 16 13 12 14 12 12 16 8 10 6 10 9 8 13 16 20
17 14 11 18 18 13 7 6 5 7 14 9 12 17 19 33 19 19 34 24 22 20 20 23 19 19 19 14 13 14 8 9 8 11 12 15 10 10 3 4 6 6 1 11 18
17 16 14 16 15 11 11 8 8 14 7 12 12 18 25 18 27 18 30 29 18 22 22 25 20 19 18 18 13 16 13 9 10 9 11 2 6 11 10 8 9 9 6 9 19
15 18 17 18 18 9 8 11 17 22 28 9 14 21 23 20 25 25 24 28 28 25 17 22 23 25 18 20 16 19 17 11 10 11 11 6 6 4 2 6 7 5 5 11 21
14 17 18 17 19 20 15 16 20 25 16 26 11 20 19 21 12 24 27 30 32 28 18 22 24 27 23 21 20 14 15 16 15 14 8 12 6 11 6 7 4 3 6 15 23
13 14 20 18 19 23 9 30 21 19 6 19 31 20 24 25 16 24 24 22 32 32 25 10 20 15 23 20 22 21 15 10 10 13 13 9 7 6 3 5 4 7 10 17 23
12 8 10 20 21 14 12 31 28 27 7 10 21 28 23 21 24 27 19 12 32 32 27 16 12 21 17 22 22 12 16 13 13 13 12 9 5 5 2 3 2 8 13 20 23
11 4 8 24 11 3 9 32 39 18 23 20 10 20 22 21 25 24 23 22 26 27 34 30 12 14 22 20 22 22 22 21 11 15 10 10 9 4 4 1 1 10 16 22 23
5 8 7 25 9 12 11 26 26 22 16 13 16 13 21 21 17 24 19 15 20 27 25 24 15 15 15 10 14 22 21 21 20 15 16 11 10 6 6 5 4 12 18 21 25
4 3 7 17 15 18 24 19 18 22 21 23 18 19 18 20 18 15 19 18 21 26 23 25 17 26 22 21 19 21 21 23 22 16 16 16 16 9 8 9 7 10 16 22 27
6 5 4 4 7 12 9 10 12 19 23 23 11 19 13 16 23 17 18 17 16 26 22 20 24 24 24 21 24 21 23 24 25 23 19 16 17 14 10 8 8 12 16 20 27
5 3 3 3 3 15 14 18 21 17 18 25 21 23 6 12 12 21 16 17 21 19 25 21 15 19 20 25 20 22 24 24 25 25 22 19 17 11 12 6 8 14 19 23 28
10 13 3 3 3 1 3 12 18 17 22 25 25 14 15 5 11 11 10 1 4 19 21 20 16 14 21 20 21 22 25 25 24 25 22 22 19 15 10 12 14 15 19 22 25

GFSSW_850_spd_006.txt.gz
Wind_Speed
23 23 22 23 24 23 24 22 23 22 21 21 21 20 20 22 20 21 28 21 16 20 16 16 19 19 21 24 23 20 13 16 21 21 14 17 14 12 12 8 15 7 5 4 7
25 25 24 25 25 25 25 24 24 23 22 22 21 21 21 23 25 28 29 23 19 20 25 22 23 22 26 26 25 20 14 23 22 20 14 20 16 20 19 15 13 15 12 12 12
24 25 26 26 26 28 27 26 25 24 23 22 21 21 20 20 22 21 19 22 27 27 24 23 24 25 29 28 29 26 21 22 27 25 20 22 21 21 17 10 10 7 1 17 13
22 24 25 25 25 27 28 29 28 27 25 23 22 21 19 13 7 4 3 5 12 24 25 27 30 31 28 24 31 25 31 31 31 24 23 19 29 21 14 12 12 3 4 12 17
24 24 24 24 25 25 26 27 29 28 27 25 22 21 19 15 24 16 22 17 8 24 29 30 36 34 27 28 29 27 26 33 25 19 29 31 26 19 15 13 8 6 10 11 11
23 24 25 24 23 25 26 25 25 26 26 25 24 22 20 22 30 24 23 22 13 17 27 30 32 34 35 30 28 30 31 27 23 32 30 24 20 19 25 13 6 10 12 15 15
25 25 24 24 25 22 23 25 25 23 22 22 23 23 22 35 17 12 19 28 18 19 22 25 29 32 30 28 35 32 26 23 24 23 23 26 19 16 24 16 21 15 18 16 13
24 24 23 23 23 24 21 23 23 23 21 19 20 18 19 21 28 36 22 22 25 28 25 18 21 31 34 30 29 24 26 22 23 22 29 26 19 16 21 20 21 19 16 20 18
22 20 22 25 25 26 26 23 19 19 20 18 18 17 22 13 26 37 31 31 23 21 19 23 25 27 25 21 21 21 18 25 24 23 24 21 18 16 21 22 20 16 17 16 14
20 20 20 22 25 27 28 25 12 18 16 11 16 12 25 27 27 25 31 31 33 23 25 25 26 19 18 17 21 20 23 22 23 23 22 14 17 16 24 25 11 26 22 19 16
21 20 19 21 22 21 24 16 8 7 19 22 17 26 13 6 18 26 22 30 31 30 21 26 15 23 25 26 26 25 23 24 23 17 8 16 22 16 14 18 23 21 16 15 17
24 22 20 19 21 21 19 12 18 13 14 31 41 36 32 22 15 19 20 28 32 27 22 21 26 27 27 24 28 27 26 23 20 19 15 15 14 13 14 18 26 24 21 16 19
22 23 19 19 21 21 18 26 22 18 14 29 39 45 42 35 34 26 30 31 24 27 27 27 27 27 28 25 26 26 25 21 23 17 16 15 14 13 20 22 20 18 8 9 21
23 21 19 17 15 12 18 14 12 9 7 15 28 34 46 38 39 40 31 32 23 28 30 30 26 28 29 28 26 25 25 25 18 15 13 14 13 13 15 17 12 7 12 14 22
21 20 16 15 13 12 12 7 1 5 7 8 37 15 31 44 12 44 45 38 27 26 22 32 29 28 28 28 27 23 23 20 14 15 15 15 12 14 15 18 7 1 7 21 25
21 20 17 16 18 18 13 10 5 7 14 9 12 26 25 35 40 10 49 43 37 25 28 29 30 30 31 26 26 25 22 14 12 12 12 15 15 14 16 4 4 3 2 19 22
21 19 19 15 20 12 9 12 7 14 10 12 21 25 25 27 32 32 31 31 26 26 28 26 32 30 29 29 23 23 14 11 11 11 12 18 18 15 8 9 2 3 13 18 21
20 19 20 20 16 15 11 7 16 20 35 10 19 23 26 24 29 34 26 27 30 31 14 23 22 33 27 30 26 23 17 13 15 11 16 20 17 5 5 6 1 1 8 18 19
18 19 21 19 16 18 10 12 22 28 17 28 29 29 24 25 22 30 34 30 32 32 25 22 29 23 32 24 23 21 22 18 18 17 12 11 11 10 11 8 9 10 12 18 17
16 13 20 16 17 18 7 17 23 29 36 34 29 20 20 19 27 31 31 30 31 33 25 24 18 28 29 25 23 23 19 16 12 16 15 12 15 5 11 6 10 10 9 17 17
11 5 20 18 19 11 7 19 26 36 38 29 28 27 26 25 25 29 32 30 32 32 31 26 16 20 24 27 22 18 20 18 14 14 12 10 10 9 10 12 11 8 15 16 20
6 3 4 22 8 3 9 19 24 27 38 28 24 25 26 25 23 17 27 32 28 30 34 32 11 16 26 26 26 23 23 18 11 16 11 11 5 10 9 9 11 14 17 19 23
6 10 3 19 5 8 15 21 26 26 26 26 23 23 25 25 12 15 22 28 37 32 30 26 20 13 19 22 24 23 23 20 14 9 14 12 11 10 11 11 9 18 22 22 22
6 3 5 9 6 10 16 21 20 23 27 22 20 24 22 22 20 17 22 16 29 30 39 22 19 22 16 18 22 26 24 23 20 13 14 15 16 15 12 9 10 18 26 24 24
5 4 6 4 7 8 12 20 22 19 26 19 22 20 20 21 23 18 16 19 25 22 25 22 27 21 24 24 27 26 26 26 24 19 18 17 17 11 13 10 12 18 24 25 24
5 5 7 14 14 13 13 12 20 20 17 18 16 19 18 21 20 19 22 20 13 19 17 20 23 22 24 27 25 28 27 25 25 23 22 21 18 13 12 27 18 22 20 21 25
8 9 8 9 9 9 9 9 7 14 18 16 16 17 16 19 22 26 30 27 27 22 23 16 20 22 21 23 25 24 27 26 20 21 22 20 15 14 12 10 9 23 19 20 25

GFSSW_850_spd_009.txt.gz
Wind_Speed
23 23 23 25 24 24 23 23 24 23 23 23 22 23 21 23 23 22 31 26 20 21 14 15 20 20 18 24 21 23 5 12 17 16 17 23 7 16 17 5 8 10 14 16 27
22 24 24 25 26 27 27 26 24 25 25 24 24 23 22 23 27 31 31 26 21 20 27 20 21 20 24 21 27 17 8 21 16 19 18 17 15 20 15 18 12 9 15 17 19
23 24 24 24 25 27 28 29 27 25 25 26 25 23 20 20 24 28 17 19 20 25 24 26 21 20 27 28 30 24 17 18 21 32 32 20 13 21 17 7 6 18 20 20 20
22 22 23 25 24 25 27 28 28 28 27 28 26 24 21 15 6 10 10 2 8 24 26 24 26 27 22 20 33 19 29 31 32 34 30 11 14 14 24 19 8 8 13 19 19
23 23 23 23 24 24 24 28 27 28 27 27 27 24 22 16 28 21 11 13 7 17 36 32 28 31 19 25 24 22 23 33 36 35 29 19 14 20 28 16 8 7 9 13 15
20 20 22 24 25 25 24 24 27 28 26 26 26 24 22 19 39 36 33 22 22 14 25 32 25 36 20 25 24 30 26 28 35 31 21 13 20 27 24 18 14 11 9 12 15
19 21 21 22 22 23 25 24 25 26 26 26 24 22 26 42 25 18 19 26 26 29 23 28 34 26 21 15 30 28 22 25 25 21 17 25 18 16 23 17 15 16 18 22 18
21 19 19 20 21 24 26 27 25 24 22 24 23 20 20 30 32 40 28 28 22 29 26 16 21 34 31 22 23 17 17 18 12 11 26 19 21 15 26 20 21 24 23 20 25
21 21 21 21 21 23 27 30 25 19 21 20 18 16 17 15 28 38 37 42 29 23 33 22 27 27 19 17 13 11 15 16 17 19 22 12 19 16 27 18 21 24 25 22 23
23 23 22 22 23 24 25 27 18 14 18 12 14 8 22 23 21 21 29 40 27 22 27 33 27 17 14 10 17 13 11 14 18 23 18 14 14 10 23 25 26 28 22 25 17
24 24 22 23 23 22 28 23 2 4 15 17 20 28 12 3 14 14 17 21 31 28 14 21 9 19 24 22 14 14 14 20 23 21 21 4 22 13 14 18 13 19 17 19 27
25 25 24 23 22 22 23 15 14 7 15 26 37 39 36 32 20 20 18 24 22 20 16 12 26 21 19 16 19 18 19 23 23 20 5 18 22 16 9 8 17 21 25 23 24
24 24 23 22 23 14 15 19 26 13 9 19 35 42 38 34 40 36 25 34 19 21 21 26 13 19 20 18 18 21 20 21 19 21 17 5 6 6 5 8 19 28 31 20 31
23 21 20 21 16 9 15 13 17 15 5 10 15 20 38 28 22 43 44 28 15 25 23 21 18 19 23 23 22 21 19 22 22 17 8 1 6 4 6 10 10 20 21 27 32
23 22 16 16 18 18 11 14 16 13 6 8 16 18 31 37 15 26 50 34 21 21 20 21 25 25 24 24 24 22 16 20 22 16 7 5 2 5 4 9 14 5 24 31 39
25 21 16 18 18 10 12 20 13 3 11 8 7 16 16 31 21 2 44 44 29 19 24 21 20 21 29 24 25 24 16 17 16 9 3 6 6 9 6 7 6 4 11 35 37
25 19 17 17 19 9 12 8 3 8 10 6 5 14 20 17 25 17 23 26 24 21 24 22 27 24 21 22 23 20 14 9 3 1 6 5 4 10 10 8 7 9 23 32 33
24 19 17 19 16 6 9 3 11 13 24 25 23 25 14 12 22 29 14 25 25 23 10 15 14 29 24 27 20 18 15 7 7 4 5 7 8 14 15 12 21 30 33 32 34
24 19 18 18 15 12 6 9 9 16 17 18 29 20 8 21 14 25 27 28 29 29 17 19 18 14 27 20 23 16 13 13 5 1 2 5 7 3 9 8 11 22 32 33 33
19 16 21 10 12 13 4 11 11 13 18 20 20 16 22 23 17 17 15 28 27 30 20 8 4 21 22 19 20 24 6 6 1 8 5 5 6 5 8 9 12 13 20 30 31
11 7 6 5 11 8 4 7 13 21 26 21 21 21 22 20 18 18 12 12 27 27 31 18 5 9 20 22 25 13 10 4 7 6 5 2 7 8 7 14 14 14 27 32 33
6 3 8 11 3 2 2 7 8 17 26 19 19 18 17 19 21 18 14 10 15 19 31 28 6 11 16 18 23 15 9 7 9 5 5 6 6 8 13 12 13 21 29 31 32
8 9 5 11 2 2 9 17 18 18 17 17 19 20 12 16 8 12 12 22 23 19 26 23 20 4 8 8 12 15 15 10 6 6 9 5 5 6 9 11 22 23 30 30 29
7 4 2 10 9 5 9 9 12 13 12 12 13 19 10 15 15 15 26 17 35 20 30 25 12 20 10 8 13 22 19 17 10 5 7 9 7 4 9 12 11 22 32 33 32
4 3 6 3 5 7 6 9 16 11 16 16 9 14 9 9 16 18 20 26 22 11 17 4 25 12 22 23 11 23 22 20 17 12 13 8 7 11 12 11 21 32 35 34 32
4 4 8 15 15 9 8 8 15 17 12 11 12 16 16 12 12 21 16 14 12 12 18 10 12 21 19 19 22 17 26 21 19 12 9 10 10 9 11 24 20 31 33 32 35
7 11 7 7 6 5 3 8 13 12 16 13 13 10 9 5 4 18 20 25 22 20 17 8 5 13 22 18 10 18 22 24 20 10 13 14 7 5 6 11 17 31 35 37 38

GFSSW_850_spd_012.txt.gz
Wind_Speed
23 24 26 26 27 27 25 25 24 23 23 22 21 21 22 24 23 22 30 24 18 18 17 15 23 19 16 14 20 9 1 8 6 7 9 26 4 28 13 5 9 13 13 9 21
21 22 24 26 27 27 28 28 26 25 24 24 23 22 22 25 27 31 29 26 21 20 26 24 24 20 20 9 12 10 6 13 14 9 12 24 11 22 8 14 14 8 14 12 25
22 22 22 23 23 25 27 28 27 27 25 26 25 23 21 22 25 34 17 16 17 24 28 27 21 19 21 18 17 12 15 21 23 25 27 25 26 30 11 6 21 12 20 21 27
19 20 22 23 24 24 23 25 27 27 27 26 26 25 21 17 8 3 16 7 2 19 28 25 26 19 7 12 36 7 21 29 34 35 28 20 32 25 18 21 26 20 20 27 31
20 19 20 21 23 25 26 25 25 26 26 26 26 26 23 18 26 12 17 9 5 5 31 31 24 26 13 12 17 12 24 33 33 31 35 35 26 26 25 36 33 12 26 29 30
19 20 20 21 21 22 23 24 24 24 24 24 25 26 22 18 35 37 35 33 26 14 18 32 25 31 7 19 17 19 20 27 29 30 34 24 26 23 26 30 31 22 27 28 30
19 19 20 21 20 21 22 24 25 22 24 21 21 21 27 42 27 20 23 37 39 31 25 27 37 19 11 11 29 24 18 20 22 22 23 26 21 15 28 31 28 28 26 27 31
22 21 20 21 22 22 22 22 24 24 21 17 17 18 19 31 28 38 39 26 26 27 31 28 21 33 30 19 14 7 6 9 10 13 26 14 25 16 30 28 30 26 29 29 31
22 22 22 21 23 25 23 22 20 24 17 16 16 16 18 18 28 37 38 41 30 29 28 29 24 24 13 14 12 6 13 16 16 12 13 8 19 15 33 31 31 34 29 31 33
23 23 23 22 22 23 26 26 22 18 17 11 13 7 21 17 19 20 24 37 32 25 32 22 15 10 8 6 12 7 7 6 18 16 9 12 15 18 33 25 30 30 28 30 29
26 25 24 23 23 22 24 24 6 3 8 15 17 22 8 9 9 9 13 22 26 11 13 24 12 16 24 23 15 7 8 10 22 22 6 9 15 23 24 6 15 28 34 33 26
25 25 27 25 23 19 17 8 10 11 15 24 39 36 37 22 10 22 9 15 17 19 10 7 25 26 20 14 16 13 13 17 22 21 5 14 18 23 13 7 22 31 32 28 16
24 22 22 24 26 17 12 13 13 25 8 17 30 32 36 33 20 37 13 24 6 15 23 25 5 20 21 14 13 17 19 18 19 19 10 9 14 14 11 6 8 15 19 18 25
23 24 23 20 19 11 15 7 19 13 4 7 10 14 30 22 14 46 29 15 10 20 19 17 21 18 16 16 16 19 19 20 17 11 8 6 6 5 7 6 4 14 13 19 30
24 22 21 15 18 23 13 16 12 12 5 4 4 7 15 34 17 24 44 28 15 16 14 14 20 24 21 24 22 20 14 15 17 13 5 22 2 8 5 6 8 9 12 24 33
23 22 19 19 20 17 13 11 7 2 8 6 8 14 2 24 17 2 29 28 23 15 17 21 10 21 24 17 20 24 10 10 9 9 6 16 5 17 5 8 5 1 16 27 33
25 22 19 17 20 10 10 9 1 6 7 1 15 22 20 8 15 8 11 22 12 13 20 15 21 16 13 21 18 13 7 4 3 6 11 10 7 12 6 8 7 7 19 27 32
27 24 21 20 13 9 4 1 10 9 19 21 21 19 10 20 9 16 7 21 22 14 12 15 11 25 23 21 17 19 14 6 7 5 3 7 7 11 9 7 13 20 27 30 33
26 21 21 8 7 9 3 7 3 5 10 16 19 10 11 21 13 11 25 17 24 20 8 15 16 6 24 20 18 9 18 15 3 3 2 4 6 8 3 7 10 18 26 31 34
23 20 9 6 6 11 2 7 3 10 15 14 9 9 18 19 14 17 4 7 15 21 8 4 5 18 18 17 21 26 6 7 1 11 6 4 3 5 2 6 8 9 16 27 32
17 11 8 3 8 4 2 4 5 16 15 9 12 14 15 16 12 10 8 7 18 6 19 12 3 4 12 18 28 9 16 6 6 7 8 3 7 7 11 13 15 13 24 34 35
9 4 9 9 2 0 1 3 6 14 19 13 9 8 12 10 10 8 9 9 27 20 10 20 4 10 19 3 17 13 10 14 10 5 3 6 8 5 9 17 18 18 29 35 36
15 6 7 8 1 2 2 7 9 15 16 6 4 6 11 8 6 7 10 12 22 19 10 7 17 5 8 2 5 18 15 12 5 5 8 7 7 3 1 13 17 21 24 33 35
6 3 3 3 3 2 3 7 4 10 12 14 6 5 9 11 12 8 14 12 31 19 18 10 5 28 14 10 6 7 19 15 10 5 6 11 5 5 6 12 9 19 32 37 38
2 3 4 3 3 6 3 6 12 7 9 10 3 6 11 6 11 15 17 19 17 10 11 7 8 19 29 18 4 5 18 20 12 13 13 8 11 10 14 15 21 33 31 32 37
3 4 6 10 11 4 5 3 10 13 8 9 5 7 14 9 14 13 5 6 7 7 12 7 6 9 22 30 25 18 9 22 19 8 9 13 8 9 22 25 18 27 32 33 38
6 7 6 7 4 3 3 10 11 12 11 12 15 11 11 12 7 9 13 10 17 14 7 4 5 6 21 15 19 20 22 11 18 16 13 11 7 8 8 16 21 26 34 37 40

GFSSW_850_spd_015.txt.gz
Wind_Speed
22 23 24 25 27 27 27 27 27 26 25 24 24 24 25 27 27 26 29 24 19 16 22 21 19 22 18 14 11 10 2 6 7 7 8 13 4 22 14 13 11 12 18 21 13
22 23 24 25 26 27 28 28 28 28 28 27 26 25 25 27 30 34 32 26 23 23 25 22 20 24 13 10 11 7 5 10 11 9 8 15 12 25 13 22 20 19 19 21 18
20 20 21 23 25 26 26 26 27 28 28 27 27 27 24 23 29 38 32 27 26 23 31 23 20 24 17 12 12 10 13 23 16 24 17 16 25 28 17 15 24 26 16 17 24
20 22 23 23 23 24 26 27 28 28 28 27 26 27 24 19 9 3 17 18 16 22 27 25 24 14 8 11 26 6 19 28 31 32 16 13 24 23 28 27 39 40 27 18 30
19 19 19 19 21 25 25 25 26 26 26 25 25 24 22 17 27 9 21 16 8 6 22 31 24 21 9 7 8 8 19 28 27 27 28 30 26 25 29 41 43 42 34 24 31
21 22 22 22 21 21 21 23 25 26 25 23 20 20 21 15 36 34 32 32 18 10 9 26 17 24 6 11 10 9 15 19 21 28 29 26 27 24 35 32 38 34 26 24 32
22 22 22 22 23 23 24 23 21 22 25 26 19 18 25 46 24 21 30 44 38 35 29 21 32 16 12 6 15 13 12 14 19 18 23 26 19 22 35 35 34 37 31 29 33
22 23 24 24 24 24 24 23 24 24 23 19 18 15 21 30 28 42 40 31 32 31 32 30 21 34 16 8 8 5 2 7 6 13 21 10 25 20 37 33 35 37 35 30 35
22 22 24 25 26 25 25 27 27 28 27 20 14 13 18 18 32 39 41 41 40 26 22 17 22 17 7 9 5 2 13 13 17 11 7 8 16 11 26 22 27 34 39 36 37
25 24 24 24 25 26 27 27 24 14 9 8 12 6 24 18 15 20 26 33 33 22 30 18 12 6 5 6 13 11 7 13 22 3 11 17 15 20 30 21 24 32 35 34 36
24 25 26 26 25 24 26 28 8 2 7 10 9 13 7 14 18 7 9 19 24 14 10 19 8 18 21 21 13 7 15 16 16 3 8 8 9 17 21 15 20 29 37 35 32
24 23 23 25 27 25 21 11 6 11 14 24 32 37 45 32 12 13 12 13 13 16 14 8 30 15 13 14 15 11 10 20 15 9 7 11 13 17 14 13 22 26 36 24 24
24 23 24 23 24 25 11 12 13 20 7 17 28 23 36 40 19 21 18 12 6 14 24 28 8 19 20 18 18 18 18 16 19 1 6 10 14 14 17 11 23 25 22 19 25
24 22 22 24 19 13 12 1 13 10 4 8 7 8 12 21 17 45 20 10 7 18 18 17 23 21 21 23 17 18 17 20 19 6 8 4 5 5 8 12 7 20 14 18 22
23 23 22 19 22 21 13 17 9 5 5 3 3 5 13 16 5 24 36 26 11 9 9 11 18 23 17 27 19 19 13 11 11 9 5 11 3 7 3 8 11 11 14 12 12
23 25 22 22 20 17 9 10 4 2 8 5 5 11 13 15 20 6 22 30 16 4 9 10 15 23 34 14 19 6 3 2 6 1 11 18 6 5 6 8 7 4 4 9 17
26 25 22 21 20 15 13 6 3 5 4 2 11 16 11 16 6 10 10 17 17 12 15 8 17 6 10 19 6 7 7 2 3 4 6 7 6 15 10 10 9 9 12 17 20
27 23 22 17 14 9 2 0 8 6 11 15 17 14 7 20 10 15 12 15 24 17 11 13 10 23 12 13 18 17 14 6 7 4 4 6 6 9 5 10 21 24 14 22 25
26 23 10 9 3 10 5 3 3 3 7 12 16 7 9 15 9 12 8 13 11 19 8 12 14 4 22 6 16 16 16 14 2 2 2 4 7 10 3 3 3 9 19 24 27
26 19 10 7 4 11 2 5 3 4 9 11 7 6 10 13 10 13 6 18 7 6 5 3 2 7 16 17 19 10 10 8 4 5 4 4 4 6 5 3 3 6 11 20 25
19 8 4 1 8 5 2 3 7 10 11 4 5 7 13 14 4 8 6 7 17 16 11 3 1 2 8 17 22 7 8 4 8 5 5 2 6 7 9 9 11 9 19 28 30
10 4 9 4 1 1 2 3 7 10 11 8 5 9 12 11 8 7 10 11 16 15 8 5 5 5 14 3 19 18 18 13 8 8 6 4 8 4 8 11 11 13 24 28 30
15 5 5 3 2 2 3 6 6 7 4 3 4 3 9 8 5 3 6 10 20 14 13 7 4 8 6 4 4 22 19 21 3 3 6 10 9 1 5 8 13 16 24 28 30
7 4 4 1 1 3 5 5 4 11 10 7 6 7 10 10 9 7 11 7 17 20 14 4 5 11 16 6 5 6 20 12 15 10 9 8 2 4 4 8 7 14 25 32 33
5 3 3 3 4 6 3 4 7 7 5 8 3 5 7 5 7 10 14 12 13 15 5 3 4 7 16 21 9 2 9 21 19 18 14 11 9 9 11 10 15 24 27 29 31
5 3 4 7 10 6 4 2 10 10 3 6 3 9 6 6 7 6 13 6 4 6 8 5 4 8 6 16 23 18 5 18 19 15 12 8 9 8 11 15 11 24 27 29 35
7 7 6 4 4 3 3 7 11 12 8 11 14 8 8 11 10 12 13 12 10 7 7 4 3 7 6 11 9 15 28 12 9 16 17 12 8 8 5 11 15 23 30 34 37

GFSSW_850_spd_021.txt.gz
Wind_Speed
15 17 19 20 22 22 23 26 26 25 25 27 29 29 29 29 28 27 29 27 17 9 15 12 11 16 16 14 12 6 6 11 8 9 8 1 3 1 1 9 8 10 16 13 16
14 14 15 17 19 21 23 23 26 26 25 26 27 28 28 28 30 33 31 30 25 23 19 19 19 17 10 9 11 10 11 15 15 13 11 4 7 7 7 13 26 21 18 11 21
16 15 15 14 15 17 18 20 21 24 26 26 26 26 25 23 24 19 26 26 27 29 29 23 19 21 17 10 13 12 19 24 23 20 11 17 15 14 15 19 27 21 27 27 25
18 18 18 18 16 15 16 17 18 19 20 23 24 24 23 15 8 5 10 16 20 32 35 26 19 16 13 16 21 14 23 30 33 24 18 22 21 20 24 36 34 30 26 29 32
18 18 18 19 19 19 18 18 18 19 19 18 19 19 18 12 19 10 10 7 6 7 25 25 26 26 19 17 23 19 22 24 26 30 27 25 27 25 30 43 33 29 28 30 31
20 21 20 19 19 20 20 19 20 20 20 20 19 15 14 14 21 27 32 19 16 11 7 22 14 22 16 16 22 14 28 30 26 23 27 23 32 20 30 40 28 28 32 33 31
20 21 22 23 23 23 22 21 22 22 21 22 22 17 19 34 18 17 16 31 32 25 19 16 28 9 5 8 20 18 16 14 15 22 14 15 23 23 38 36 24 28 30 30 34
21 22 22 22 23 24 24 24 24 23 22 21 18 12 14 18 21 26 25 34 21 27 25 21 19 19 14 5 3 10 9 16 14 21 15 13 25 16 24 18 20 24 27 29 37
21 22 23 24 24 24 24 25 24 19 16 15 9 8 14 11 18 15 20 27 31 28 20 14 16 15 10 15 9 9 16 18 14 11 4 16 22 12 15 15 20 28 30 30 32
22 22 22 21 23 26 26 23 13 8 7 3 3 5 11 7 9 14 14 10 17 16 16 16 13 12 15 16 23 16 12 11 12 10 18 21 25 18 22 21 23 29 31 30 33
23 23 23 23 24 25 25 13 4 3 5 8 9 13 28 24 20 20 7 9 14 21 15 28 12 24 33 28 19 19 19 23 19 14 13 19 21 14 19 26 26 28 31 33 39
23 25 23 23 23 23 11 4 3 5 13 22 29 31 36 30 14 22 16 9 12 17 19 12 29 33 20 21 24 24 23 20 16 12 10 15 23 17 14 21 28 30 32 30 30
25 23 22 24 24 9 16 2 2 10 6 19 16 14 15 11 18 28 14 12 10 18 28 25 38 21 21 24 24 27 28 22 21 9 11 12 22 16 21 17 20 29 27 27 23
23 23 24 25 14 15 6 5 6 12 4 6 4 4 3 5 7 21 25 21 12 21 21 23 27 20 25 29 22 26 24 22 21 11 15 4 18 14 19 22 21 28 22 22 17
25 25 23 20 19 11 6 4 7 2 5 3 3 1 6 5 13 5 12 28 24 11 16 18 16 25 27 28 24 19 17 18 20 17 16 18 13 16 12 19 23 20 19 10 5
28 27 25 20 12 9 1 6 0 3 7 2 3 9 10 4 13 10 4 22 22 16 21 19 12 24 30 19 23 12 12 16 12 12 14 19 15 14 16 20 16 12 12 4 6
30 30 21 11 8 3 3 1 2 5 8 1 6 10 12 9 8 19 14 11 13 18 18 17 15 4 13 19 21 19 14 6 7 7 10 15 11 18 14 16 15 15 11 1 2
32 23 9 12 9 3 2 1 6 3 6 14 11 15 11 9 5 17 16 9 19 17 8 14 10 20 18 18 18 26 21 9 9 7 9 7 10 8 19 22 28 22 11 6 9
32 8 12 11 8 8 3 3 3 3 6 10 13 7 3 6 7 6 10 7 9 16 7 12 16 15 18 16 22 23 18 15 3 1 4 6 6 11 15 9 11 16 10 10 13
22 5 17 12 4 9 2 3 3 8 14 9 7 5 7 7 6 3 2 2 10 13 11 7 7 14 21 23 25 19 20 11 9 11 8 6 4 9 9 14 10 9 11 13 16
12 3 13 14 3 2 2 3 6 10 11 4 4 7 8 9 9 6 4 5 5 15 13 8 7 12 20 23 24 12 22 8 9 5 6 3 5 7 12 14 14 10 15 20 22
11 1 9 10 2 1 3 9 8 9 9 6 5 8 12 11 10 5 7 5 2 6 8 7 6 6 26 11 22 20 20 21 10 11 5 2 4 3 8 2 1 8 13 17 20
9 5 5 7 3 5 7 8 6 8 9 5 5 6 6 5 5 7 7 2 7 4 3 6 6 9 12 9 16 27 22 23 9 3 17 9 2 1 3 1 4 8 15 16 20
6 4 4 3 4 5 8 5 7 11 5 8 11 8 7 6 5 5 8 3 9 2 5 5 4 7 7 6 3 24 25 21 19 10 10 18 12 16 7 4 5 7 15 18 21
6 2 3 5 3 10 6 5 9 7 5 8 4 3 9 5 10 1 3 6 5 3 2 1 3 5 13 13 9 3 24 22 24 20 15 11 24 21 14 9 1 10 16 20 23
6 4 4 9 9 9 4 4 9 9 6 8 5 14 14 10 12 16 9 3 3 1 2 2 0 7 10 8 9 8 8 24 23 23 14 9 17 18 14 5 4 13 20 23 25
8 8 7 7 3 5 2 4 8 17 10 10 13 15 14 11 7 13 19 19 14 4 2 3 3 3 15 4 4 9 13 11 17 24 21 17 16 1 4 7 8 16 23 26 26

GFSSW_850_spd_024.txt.gz
Wind_Speed
12 14 15 17 17 18 19 21 23 23 22 24 26 28 28 27 28 26 27 24 15 10 16 11 12 13 13 15 15 14 11 14 19 14 11 5 8 2 3 11 12 10 13 15 15
12 13 14 16 17 17 16 15 17 21 21 22 22 25 26 26 26 32 32 29 25 22 19 16 16 18 21 20 15 18 15 23 21 13 15 9 10 9 10 17 21 20 20 13 13
15 15 14 15 16 18 19 18 18 17 20 20 19 21 21 18 18 19 23 26 27 27 29 23 20 20 26 24 25 22 24 23 26 26 23 21 23 23 18 18 26 25 24 22 23
15 16 17 17 17 17 18 19 19 19 17 17 19 18 16 9 9 5 17 16 22 31 31 27 25 26 23 25 28 29 29 28 32 32 24 20 29 27 27 25 31 29 27 30 28
16 16 17 17 18 18 18 18 19 20 20 18 16 17 13 10 21 11 11 11 4 6 26 34 34 31 28 26 29 31 25 31 29 31 30 29 31 32 34 29 32 27 27 25 25
16 17 18 18 19 19 19 19 19 18 19 20 20 17 11 19 14 23 28 18 14 7 13 29 21 30 29 31 29 32 34 35 35 34 32 28 29 33 34 31 34 27 28 27 26
17 19 20 20 20 20 20 20 20 19 19 20 20 15 16 28 19 16 20 29 21 13 16 16 29 15 23 22 33 32 27 27 25 31 28 32 27 28 33 28 32 28 24 26 28
17 18 20 21 21 21 21 22 21 20 19 17 16 10 13 17 17 22 22 28 23 27 19 16 16 29 22 17 16 20 24 25 26 23 24 18 30 24 23 24 24 21 24 28 29
17 18 18 19 20 23 23 22 19 16 14 12 7 10 15 10 11 17 16 21 20 20 20 16 18 24 19 21 18 25 26 32 26 25 24 25 35 25 30 23 19 22 26 29 33
20 21 23 22 21 21 23 19 14 9 5 2 6 7 16 12 6 5 7 9 13 19 17 23 19 15 20 19 30 28 25 26 28 21 17 27 33 23 27 25 25 25 27 30 31
21 24 24 23 23 24 20 14 7 7 7 14 11 18 22 18 14 14 8 6 11 20 24 30 20 27 43 34 26 26 26 31 26 25 24 26 30 27 27 19 27 31 30 31 32
22 23 23 25 25 24 11 10 4 6 14 22 31 31 33 28 18 23 14 12 13 21 24 20 30 46 29 29 29 29 28 30 24 19 22 23 29 27 22 25 28 33 30 32 29
22 22 24 25 25 10 12 6 3 10 9 20 17 17 16 12 19 27 20 24 18 19 26 33 40 27 28 31 32 31 31 24 26 19 18 22 28 28 27 33 35 31 27 28 27
24 24 24 26 10 11 9 3 7 8 6 9 4 5 4 5 7 17 14 26 20 24 22 30 33 26 32 33 31 32 24 24 24 20 23 21 24 27 25 27 22 29 30 32 25
25 25 26 20 16 8 6 5 6 3 6 6 6 2 3 7 8 7 9 17 27 21 15 30 20 35 29 43 29 30 18 22 23 21 23 27 19 21 19 23 25 25 27 22 18
27 27 23 8 6 8 8 7 3 5 8 1 4 3 7 7 3 6 5 12 16 27 26 28 17 22 41 20 28 22 18 21 18 16 20 21 21 21 23 26 24 21 21 18 10
29 22 8 7 4 4 2 4 5 7 8 1 8 8 15 15 3 10 7 12 12 17 27 25 29 22 21 29 24 23 22 10 13 13 15 17 15 23 21 19 22 16 12 12 10
25 7 9 5 8 2 2 5 5 6 7 16 13 17 18 12 1 7 9 7 15 23 18 23 21 30 22 30 24 30 27 14 18 14 13 19 11 14 11 18 28 25 12 11 12
13 4 10 9 7 3 5 5 5 11 8 11 17 16 15 6 4 8 3 3 6 15 20 21 28 27 25 24 29 28 27 25 8 4 8 9 14 13 18 15 13 13 20 14 12
9 1 12 10 6 1 2 5 5 6 13 14 15 9 13 12 8 7 1 5 6 12 14 9 12 25 33 24 26 28 24 22 13 15 12 8 12 7 3 6 10 12 14 14 16
8 3 8 8 3 2 3 6 12 13 16 8 13 13 15 14 13 13 5 7 4 9 15 13 8 17 24 24 27 18 23 21 17 12 13 6 6 7 13 7 11 12 16 19 21
9 2 6 8 3 2 5 11 11 13 13 10 8 6 8 10 12 12 8 3 11 4 9 6 8 11 27 26 24 24 21 26 14 20 10 7 2 4 4 3 8 6 13 20 22
11 3 6 6 4 6 11 15 11 14 15 7 10 6 13 11 5 5 6 12 12 7 3 3 11 11 12 24 22 27 22 27 15 9 19 12 3 3 6 5 4 10 16 22 24
7 4 4 3 6 8 11 8 12 12 11 13 13 12 12 10 7 7 9 7 5 8 9 8 9 17 7 22 18 25 28 26 23 12 13 16 11 8 8 10 7 10 17 22 25
6 3 4 4 6 11 11 8 12 9 8 16 6 7 11 8 16 2 7 13 7 5 5 4 12 19 13 8 7 13 25 23 26 19 15 14 18 14 11 8 6 10 19 22 24
5 5 7 16 11 11 7 8 12 14 12 10 13 17 17 16 13 17 13 6 2 5 5 4 4 13 16 14 8 8 13 26 23 22 21 11 13 13 14 13 7 6 19 23 24
5 5 5 9 6 6 6 10 12 17 10 10 13 16 14 12 16 22 22 18 15 13 6 4 4 10 17 16 7 10 13 19 21 19 21 19 16 3 2 5 7 1 19 24 25

GFSSW_850_spd_027.txt.gz
Wind_Speed
15 16 16 16 16 17 18 18 20 20 19 19 21 24 27 26 26 22 22 18 15 18 18 9 13 18 17 21 26 22 15 17 21 20 18 14 11 17 4 12 7 11 12 17 18
13 15 17 18 19 19 18 18 18 19 20 19 20 21 21 25 26 28 28 26 24 21 20 18 22 20 23 23 28 24 17 24 20 19 19 19 11 16 9 13 17 20 23 20 13
15 15 16 17 19 20 20 20 19 18 19 20 18 17 18 16 20 22 24 28 31 29 28 23 23 23 27 28 30 29 24 24 26 25 26 30 26 24 21 21 21 21 24 22 23
16 17 17 17 17 19 20 21 21 20 18 18 20 18 14 8 10 2 8 18 22 24 29 29 31 32 28 27 33 29 36 33 34 35 34 32 34 29 28 28 28 26 28 24 25
16 16 17 18 18 19 20 20 20 20 21 20 18 18 17 13 22 20 17 8 9 12 24 32 36 38 32 31 32 34 31 37 40 40 38 37 34 34 34 35 35 30 29 25 27
17 18 19 19 19 19 19 19 19 19 20 21 21 19 13 25 13 16 19 18 13 12 16 28 38 39 40 36 33 38 39 41 42 40 38 33 35 35 36 37 36 31 30 30 29
17 18 20 21 21 20 20 19 19 19 19 20 20 18 21 29 18 17 16 19 21 21 20 20 28 36 36 33 40 42 35 33 34 36 34 36 35 34 39 37 37 35 33 31 28
15 17 19 20 21 22 23 23 22 20 19 18 19 12 17 17 22 24 23 25 24 25 24 18 17 31 36 30 32 33 31 29 32 32 34 28 35 28 35 37 37 30 30 27 25
19 20 22 22 22 21 21 21 18 18 15 13 10 13 24 9 16 14 23 24 22 24 24 25 19 25 24 24 22 27 28 36 31 29 28 29 40 29 36 36 36 37 36 25 28
21 22 24 25 26 26 26 19 18 13 7 4 10 9 22 16 6 7 4 9 18 21 25 24 23 18 19 21 27 32 34 30 33 28 29 34 36 31 34 32 35 42 26 31 33
23 24 24 26 27 26 27 19 7 8 12 15 16 17 26 10 12 15 12 10 13 19 23 30 16 27 42 37 33 31 26 32 32 28 31 31 32 28 23 32 34 36 38 26 34
23 24 25 26 27 24 11 13 10 8 15 27 32 36 35 31 31 26 19 19 17 19 21 24 30 44 28 33 32 34 32 34 29 28 23 28 30 28 26 26 34 38 39 33 31
25 25 26 27 23 9 14 13 8 12 11 30 31 30 25 22 31 29 26 28 23 22 25 29 42 26 32 32 33 33 33 30 31 25 23 25 29 30 28 29 34 38 42 41 39
27 25 26 27 14 13 10 10 9 12 8 19 12 7 9 10 14 19 24 30 26 29 22 27 32 32 34 35 34 32 30 29 27 22 20 21 23 28 21 24 26 32 37 37 30
28 27 25 13 14 9 10 10 9 6 6 5 9 7 6 11 4 4 14 19 24 25 22 34 26 34 36 41 32 38 25 26 26 21 23 28 19 20 22 24 22 21 27 30 29
31 23 12 10 7 11 11 9 6 6 4 4 7 13 15 16 7 9 8 16 14 20 28 31 33 28 38 34 28 31 28 26 21 18 20 26 21 24 24 25 24 22 29 25 24
27 11 12 8 9 12 7 8 5 6 7 9 12 13 14 22 13 12 10 13 14 16 20 31 31 29 29 28 36 28 26 17 19 17 23 18 20 23 23 22 19 18 23 23 22
19 9 12 12 13 7 6 3 8 10 11 17 18 20 19 20 16 7 11 16 17 15 18 22 25 34 27 29 33 34 28 17 33 15 19 24 24 17 14 9 10 18 14 12 12
11 6 4 11 8 4 5 6 6 12 14 15 20 16 17 19 17 14 17 16 5 6 7 14 27 29 34 26 25 39 27 34 24 24 17 15 18 20 18 16 12 11 18 17 15
9 6 4 8 5 5 3 7 10 14 14 16 19 10 15 19 6 16 6 1 2 5 3 13 10 27 30 32 32 31 29 23 20 27 22 14 11 9 7 6 16 14 20 20 18
9 4 4 8 7 6 4 8 15 16 16 10 19 20 17 15 18 14 13 6 4 6 8 16 5 15 29 32 32 24 25 29 22 18 16 13 12 6 6 8 10 15 23 25 23
7 4 5 7 5 5 5 16 20 15 17 15 10 15 15 16 14 15 18 8 6 9 14 15 8 16 15 26 30 31 30 31 18 27 18 11 6 4 7 11 12 18 24 23 24
10 5 1 4 5 7 15 18 9 13 15 10 10 15 17 18 7 8 2 7 3 8 4 7 11 16 4 17 31 30 33 27 27 18 20 14 6 7 4 4 11 9 20 23 25
7 5 5 4 7 9 13 14 16 15 12 13 17 11 6 15 11 7 10 2 4 16 10 8 11 20 9 8 19 29 32 29 29 15 18 19 6 10 13 11 11 13 17 23 25
6 3 5 5 9 10 14 14 15 14 14 23 13 14 16 16 17 5 7 14 3 6 4 3 13 23 16 16 26 28 27 27 29 24 16 21 14 13 15 12 12 15 18 21 24
5 7 12 20 10 10 11 11 15 18 16 14 15 19 18 17 16 16 14 12 2 4 5 6 10 16 19 15 24 18 30 26 23 26 18 14 15 7 14 13 10 12 18 20 23
6 6 6 12 11 6 9 12 18 18 12 15 18 19 18 18 22 25 27 24 15 15 11 5 7 10 15 16 24 16 21 22 24 25 20 12 4 4 7 3 3 3 16 22 23

GFSSW_850_spd_030.txt.gz
Wind_Speed
15 16 17 17 17 17 18 19 18 17 15 14 16 20 25 26 28 23 28 27 13 21 18 8 10 13 17 22 22 21 14 16 23 22 19 20 17 20 17 5 12 3 7 7 14
15 17 18 18 18 18 18 18 19 19 19 18 16 14 16 23 26 32 33 29 25 22 21 19 21 17 24 21 26 21 16 26 22 21 18 22 21 13 17 12 15 18 16 19 19
16 17 17 19 20 21 21 20 19 19 19 19 18 16 13 10 19 21 25 28 27 27 26 19 22 24 27 29 30 28 24 25 26 31 31 25 26 24 26 18 17 25 25 21 20
16 17 17 18 19 21 22 23 22 21 20 19 19 18 13 7 8 1 6 6 22 27 22 22 24 30 27 26 33 27 36 34 35 34 35 26 34 31 33 31 27 35 28 25 20
18 18 18 18 19 20 20 21 21 22 22 21 20 19 18 13 21 16 16 15 8 18 23 28 31 29 29 28 31 31 28 37 39 36 37 38 32 30 37 37 38 35 33 32 30
20 20 21 22 22 21 20 19 19 20 22 23 23 20 15 24 13 15 18 16 16 17 23 23 30 32 32 33 31 36 36 38 40 39 39 33 30 34 37 34 36 34 35 37 35
19 20 21 22 24 24 24 23 21 21 20 21 22 21 22 31 18 16 15 15 20 21 22 21 23 30 36 31 40 40 33 32 32 36 33 35 32 28 36 38 38 38 38 36 32
18 19 21 22 22 22 22 22 21 21 22 18 19 15 20 17 19 21 22 24 25 25 26 23 22 26 31 38 39 32 32 30 29 29 37 30 31 26 37 33 30 34 34 34 37
23 24 25 26 26 27 26 24 19 15 17 16 14 11 18 11 12 16 16 25 24 25 26 24 25 25 21 21 22 29 23 33 33 29 30 29 31 28 38 37 35 31 33 33 33
25 26 26 26 26 27 29 24 16 19 12 8 12 12 21 13 14 4 6 7 17 22 23 27 22 19 18 19 24 23 30 34 29 26 27 30 29 28 34 35 34 30 31 27 32
28 28 28 28 28 28 21 21 22 7 5 20 18 16 27 13 6 10 9 12 11 16 20 26 17 25 42 31 30 26 32 33 29 25 27 25 26 29 23 27 27 33 27 27 31
29 30 29 27 26 14 12 15 17 14 23 24 35 41 38 34 35 32 21 21 17 17 19 20 28 37 23 29 30 33 33 31 28 26 23 23 25 24 23 20 29 28 26 22 25
30 31 31 29 20 9 14 14 18 17 20 40 47 41 35 29 33 31 26 28 22 21 20 23 36 25 28 28 31 32 33 26 30 24 27 24 25 25 24 26 31 27 26 25 25
29 30 23 20 7 14 11 16 17 17 9 11 9 5 14 15 21 24 25 29 25 26 22 24 25 31 29 33 31 28 28 28 27 22 21 20 20 25 19 22 21 22 28 30 30
29 25 13 19 16 11 17 17 16 9 6 12 16 8 13 10 9 9 10 19 24 22 20 33 24 26 30 36 28 34 22 26 27 25 21 24 15 27 16 19 15 16 23 25 23
28 18 17 12 17 15 18 14 12 4 5 11 6 8 12 17 21 17 10 12 15 21 20 28 32 27 27 28 32 26 29 27 25 19 18 25 21 25 18 18 17 18 27 27 22
24 12 15 10 17 18 13 11 5 4 18 7 19 18 17 14 15 15 14 9 7 8 18 24 26 29 28 29 28 31 22 16 18 17 22 19 22 21 21 19 19 21 24 18 14
14 10 10 7 16 13 11 4 4 9 17 21 18 21 19 20 17 19 7 10 19 16 14 15 19 27 26 31 27 29 26 15 24 17 19 23 22 20 22 19 18 12 5 11 3
16 11 7 9 11 10 11 2 3 12 17 19 21 17 16 16 15 20 13 17 13 11 7 8 12 21 22 29 29 28 28 29 23 21 16 17 20 31 24 18 13 7 11 11 21
14 9 8 9 11 9 6 9 9 14 13 17 17 14 21 24 6 11 11 6 12 5 1 7 16 20 29 26 32 31 20 26 18 25 22 20 23 14 17 19 16 12 11 20 25
10 6 2 8 8 6 4 10 19 21 15 15 16 15 18 20 18 13 8 15 8 8 5 11 11 23 23 21 28 23 25 22 21 17 16 14 13 7 14 9 4 13 19 24 24
8 5 2 7 6 6 6 20 28 23 18 14 11 13 10 19 21 20 18 7 1 7 12 14 7 17 25 25 15 29 25 23 15 25 17 14 16 8 4 5 6 13 24 29 26
9 15 1 2 4 9 16 17 21 17 16 19 13 16 12 13 7 6 4 14 7 5 3 7 6 11 18 20 22 18 28 25 19 12 20 17 15 7 7 8 10 16 26 28 27
8 4 11 14 9 11 15 16 17 23 15 22 20 19 5 12 19 5 5 10 8 8 10 3 6 15 11 13 13 10 20 31 25 17 17 19 4 6 8 9 12 22 28 27 27
6 4 11 7 11 13 14 16 18 17 19 24 12 17 21 22 19 14 14 11 7 5 5 3 5 14 19 19 15 19 29 27 31 23 22 21 19 7 13 14 13 15 23 25 27
9 9 12 21 16 15 13 13 19 21 19 16 15 20 20 19 19 21 18 16 9 4 0 4 4 15 20 16 8 21 32 25 29 27 27 25 16 13 14 22 15 15 22 23 26
9 10 8 12 12 11 8 13 18 21 13 23 20 18 18 16 23 29 27 28 23 18 14 7 3 6 6 10 3 15 23 23 22 24 27 16 11 18 13 9 12 20 22 22 25

GFSSW_850_spd_033.txt.gz
Wind_Speed
17 17 17 17 17 18 18 18 18 17 15 14 14 15 18 25 29 27 31 28 20 19 19 10 7 15 14 20 19 21 5 8 10 13 16 28 14 17 14 19 12 5 4 4 2
16 17 18 19 19 18 18 18 18 19 18 16 15 14 15 20 25 33 33 31 27 22 21 25 19 16 18 14 18 17 8 17 17 14 15 24 21 23 10 10 7 14 16 22 21
17 18 18 19 20 20 20 19 18 18 18 19 18 16 14 16 23 20 12 18 24 26 26 22 19 21 24 26 23 18 19 17 22 26 31 28 25 29 18 7 14 9 18 30 27
18 19 19 19 20 21 21 20 20 19 18 19 20 19 15 10 6 5 1 11 9 24 26 26 23 22 8 16 31 19 27 27 30 32 34 26 33 25 27 21 26 29 22 26 23
19 20 20 20 21 20 20 20 20 20 20 20 19 20 19 11 25 12 13 9 13 12 26 24 25 18 9 8 23 24 20 28 32 31 35 38 32 28 31 37 36 30 35 35 30
21 22 22 23 23 23 23 21 20 19 20 22 21 20 16 16 16 15 14 18 19 8 20 24 21 23 17 15 21 21 21 29 29 32 35 27 29 31 33 39 35 32 35 36 33
20 20 21 22 23 23 23 23 23 22 22 20 20 19 19 32 22 19 20 18 14 18 20 22 23 21 10 12 36 27 21 21 26 30 27 34 30 31 34 34 33 33 37 40 37
23 23 24 24 24 23 23 24 22 18 20 17 18 12 13 23 13 15 19 20 18 18 20 21 24 21 14 15 22 17 16 22 22 20 29 22 40 13 28 31 29 33 39 33 31
26 28 28 27 26 26 28 25 16 12 17 16 18 8 14 10 16 7 7 25 20 18 21 19 18 21 16 5 6 13 21 24 26 23 19 15 28 20 33 32 34 38 42 40 41
29 30 31 29 27 25 22 20 21 16 10 8 12 9 15 7 5 7 3 9 12 16 20 24 17 10 10 11 18 11 21 26 29 12 14 21 27 30 43 32 34 37 38 39 41
29 31 32 28 25 17 22 26 27 9 9 21 27 20 31 20 20 12 9 3 10 10 8 15 8 21 36 21 14 13 21 20 18 18 16 21 23 25 21 18 19 26 27 30 34
30 33 31 26 21 10 15 18 18 20 21 37 33 40 41 39 34 33 25 25 15 9 8 9 24 24 16 14 19 20 25 24 15 14 16 22 20 24 22 19 28 35 34 35 33
28 30 26 21 16 13 17 21 20 24 9 34 23 23 34 29 32 31 30 28 16 13 12 15 15 17 20 19 19 25 27 19 21 13 23 16 15 17 17 21 25 26 31 25 23
28 29 20 21 12 14 19 25 20 20 4 11 22 13 16 15 13 29 33 28 19 17 14 15 16 21 19 22 22 24 14 20 21 13 19 6 17 21 17 19 16 26 28 35 35
27 24 17 12 17 16 23 22 20 12 4 18 4 10 11 8 15 15 24 23 19 17 12 25 14 7 16 21 19 24 13 18 16 14 15 20 9 27 10 12 9 8 26 35 24
22 16 15 12 13 22 24 18 15 2 3 10 11 17 15 16 8 6 5 20 20 15 18 19 20 17 18 19 18 18 17 21 14 9 12 20 14 30 16 19 5 10 24 25 28
19 10 9 10 13 19 17 16 3 2 7 10 18 18 18 16 19 19 2 9 1 6 14 16 19 20 20 19 18 14 14 8 9 10 17 11 11 20 7 12 15 15 23 29 32
17 8 9 9 11 16 16 4 2 5 11 16 18 10 9 15 15 21 15 12 12 14 5 10 8 9 8 18 15 13 11 10 14 14 16 11 11 7 15 17 25 32 30 7 10
14 5 5 3 10 12 13 2 3 8 10 22 18 13 13 17 11 11 12 4 4 7 4 3 6 10 16 15 10 21 18 13 17 18 5 8 9 24 24 23 15 12 12 25 31
16 12 6 7 11 7 3 4 8 19 23 19 12 11 14 13 11 7 7 5 7 2 4 3 7 8 15 15 14 13 10 5 10 16 16 8 13 10 17 14 22 10 13 27 34
10 5 7 8 7 3 1 4 18 28 26 11 13 13 12 10 8 12 8 11 14 11 7 8 4 8 9 4 9 7 14 12 7 11 13 8 10 16 20 21 14 11 28 33 38
6 4 3 5 2 4 2 13 24 22 27 17 14 17 7 10 11 9 7 4 6 17 5 5 4 7 11 18 18 15 18 15 10 8 12 6 11 7 8 7 12 19 31 36 39
15 9 7 4 1 3 8 12 19 18 17 7 13 11 11 7 5 6 6 3 15 11 3 4 3 4 7 9 9 9 11 9 7 9 17 15 12 10 13 5 12 21 32 34 39
7 4 12 14 10 10 11 12 14 18 13 21 15 14 12 14 11 4 7 5 11 13 11 0 3 7 8 15 7 12 18 17 9 9 11 17 20 13 12 8 8 28 35 36 39
4 5 14 5 11 14 11 7 12 16 13 18 5 14 15 11 15 10 14 13 12 5 2 2 6 10 14 18 17 14 16 18 13 16 10 13 12 16 11 3 19 31 33 33 34
7 7 11 20 19 15 5 3 10 13 15 12 12 17 15 13 13 15 16 12 7 4 4 6 4 8 15 18 14 13 15 17 18 22 17 21 20 5 3 16 15 26 31 31 33
9 10 9 9 10 10 10 13 10 15 10 24 18 14 15 13 23 29 25 24 14 12 10 6 3 3 5 5 10 3 14 17 14 18 18 16 22 5 11 14 5 21 28 32 32

GFSSW_850_spd_036.txt.gz
Wind_Speed
15 16 17 17 18 18 17 18 18 18 16 16 15 16 19 23 25 25 32 29 24 21 21 11 13 13 18 15 19 14 2 5 6 7 9 6 4 31 20 12 1 8 9 8 15
16 17 17 18 18 18 18 18 18 18 18 17 17 17 20 23 28 33 29 26 25 23 21 28 20 12 12 14 9 8 8 9 9 11 6 20 12 30 19 22 16 3 14 6 6
17 17 18 18 19 19 19 19 18 18 18 18 18 17 18 21 26 13 9 5 8 23 30 24 26 18 15 22 11 9 14 14 19 20 19 18 18 30 21 12 14 16 21 22 16
17 18 18 19 19 19 20 21 20 20 20 19 20 21 20 16 7 13 4 7 6 12 33 33 22 15 6 12 22 11 17 20 24 26 23 18 30 17 25 27 29 29 29 27 22
19 19 19 19 19 19 20 21 21 21 21 21 22 23 23 11 26 11 16 8 2 11 29 30 26 15 7 6 14 22 12 19 25 32 32 29 27 27 32 36 36 36 35 31 30
19 20 21 21 21 21 21 22 22 23 23 22 20 21 13 12 17 13 20 24 12 9 15 27 12 19 7 6 9 6 10 20 24 29 29 20 25 31 37 41 35 34 36 34 32
19 21 22 21 20 19 20 21 21 20 21 22 19 14 14 28 20 18 20 20 17 14 15 23 25 12 10 4 24 23 10 16 22 16 13 22 24 27 34 34 34 37 39 36 36
24 25 26 25 22 21 21 20 11 13 16 17 16 11 13 26 12 15 10 24 25 18 13 14 14 14 26 13 10 2 6 18 20 18 14 11 33 20 26 26 28 29 38 42 48
28 28 28 27 25 21 18 19 16 16 14 14 15 9 15 8 10 7 8 12 23 19 13 12 10 10 6 3 1 6 16 19 21 8 5 13 42 13 27 30 26 28 35 40 44
27 27 30 28 26 21 19 22 18 9 17 14 7 9 10 9 5 20 17 6 5 15 16 10 6 5 4 6 19 11 22 16 14 6 17 21 33 19 33 35 34 39 44 43 43
27 28 28 24 20 14 20 29 29 7 31 15 27 27 41 44 46 34 12 15 13 8 6 5 4 19 20 16 9 8 11 14 2 11 16 20 21 19 20 21 19 29 33 38 44
25 25 24 18 12 12 16 24 22 18 17 33 21 30 32 34 33 39 22 9 3 5 4 4 19 9 9 6 11 13 14 19 6 9 10 12 23 25 23 23 29 36 36 36 38
23 23 20 15 10 12 13 18 16 21 6 16 28 19 26 9 23 34 21 14 6 8 7 10 6 9 15 10 16 15 18 16 11 12 22 9 17 13 17 16 24 26 33 35 32
22 19 15 14 6 18 17 22 13 18 4 7 11 8 14 7 4 12 19 21 5 10 9 10 11 14 11 18 16 19 11 12 17 12 14 7 19 17 19 23 16 22 31 29 37
20 15 9 10 11 17 22 17 14 5 3 9 11 11 19 16 21 4 9 11 19 19 7 13 8 1 11 17 13 19 13 11 16 9 9 16 4 33 11 19 18 14 25 39 42
20 14 8 8 12 17 21 19 5 4 3 7 7 13 11 18 20 14 8 7 9 5 16 18 15 12 12 13 9 7 8 13 16 3 10 15 9 29 17 21 11 8 25 29 34
21 14 9 10 13 16 21 8 4 5 4 8 22 18 8 11 12 11 5 2 4 7 5 7 13 14 16 12 11 5 1 2 3 5 16 14 11 23 6 6 11 16 24 38 38
21 12 7 9 11 17 17 5 6 3 6 15 17 19 4 8 6 10 11 5 10 2 5 2 4 7 8 9 8 6 9 5 9 4 5 9 10 9 16 26 38 34 34 33 32
24 8 8 8 9 10 8 5 5 8 6 12 14 10 5 6 6 5 5 3 4 3 5 3 5 2 8 4 2 5 8 7 5 15 2 6 15 17 21 26 22 19 23 15 19
22 10 5 5 6 8 5 2 4 13 16 13 1 9 9 6 5 7 3 4 7 8 3 3 4 6 5 3 3 6 3 1 2 6 10 6 7 8 9 16 7 10 10 18 23
10 6 5 4 6 2 2 5 10 18 15 7 5 5 11 7 2 3 4 4 4 6 6 2 1 3 4 4 4 2 3 3 4 3 7 4 9 7 19 11 14 12 19 32 33
10 2 7 5 3 2 1 5 19 16 20 4 4 5 7 7 3 4 4 4 4 3 5 1 1 4 8 14 16 10 6 5 3 8 5 9 20 14 14 16 12 11 26 31 39
17 6 6 10 3 4 7 11 13 13 11 3 4 5 5 4 5 5 2 7 11 3 3 4 1 3 10 6 2 5 5 2 4 7 19 7 10 7 9 12 6 11 25 29 37
8 4 6 8 14 3 7 6 9 15 15 11 10 4 6 7 3 6 9 5 6 7 6 4 4 6 7 5 3 5 8 8 5 3 10 19 14 28 19 19 7 14 29 33 37
6 3 4 4 6 8 8 7 16 8 5 11 4 10 13 5 6 4 5 8 9 15 4 7 5 8 14 16 16 16 16 13 12 9 4 7 12 16 18 16 12 24 26 30 31
8 6 9 14 13 5 5 3 14 12 7 7 9 18 12 8 9 11 11 6 8 5 6 4 4 5 13 16 17 20 19 13 16 13 9 15 24 10 14 20 11 25 30 31 33
12 4 8 7 6 5 2 12 13 16 10 13 14 14 13 13 18 27 27 29 15 7 6 6 4 2 7 12 14 8 15 17 14 8 4 5 7 16 15 2 6 8 20 35 35

GFSSW_850_spd_042.txt.gz
Wind_Speed
16 15 14 14 14 14 14 14 15 16 15 16 17 20 22 23 25 27 29 25 23 21 21 23 12 8 15 14 14 7 1 5 7 8 5 4 1 4 4 4 5 4 4 16 1
16 17 17 17 17 17 17 16 16 16 17 19 19 20 21 23 27 28 23 24 26 26 25 22 21 16 12 12 11 7 5 10 6 10 4 5 4 4 4 6 2 11 9 9 10
18 18 18 19 18 18 19 19 18 17 16 18 21 23 23 23 23 2 2 7 2 7 18 25 21 18 15 11 13 10 12 14 8 13 15 11 13 12 5 4 14 10 8 13 13
18 19 19 20 20 20 20 20 19 20 20 20 19 20 22 19 6 6 8 10 18 18 12 19 22 9 8 11 15 5 17 22 10 15 5 9 17 13 18 21 26 25 25 29 26
18 19 20 21 20 19 18 17 18 19 20 20 20 17 14 12 19 14 14 22 21 18 13 9 22 12 8 7 10 15 4 16 32 20 20 18 21 15 27 31 35 35 35 35 31
20 21 21 21 20 19 14 14 16 17 18 19 19 16 11 5 15 24 23 20 20 18 12 10 9 23 7 7 18 4 15 19 15 14 10 6 16 11 11 25 29 28 38 36 35
21 21 21 19 16 14 12 14 17 19 18 13 14 14 16 18 19 14 14 16 17 17 22 15 15 11 5 2 20 8 5 4 7 6 7 16 25 31 30 30 29 38 45 42 39
23 22 23 21 18 13 14 15 16 10 11 18 17 9 11 14 22 17 23 23 22 23 16 18 10 19 11 5 1 4 5 15 15 8 7 12 33 18 31 30 35 37 36 36 37
23 23 24 21 19 17 18 19 21 16 16 22 10 8 9 19 20 24 23 21 22 21 13 11 13 12 6 4 3 4 15 11 8 9 9 16 31 7 10 16 24 26 31 33 35
24 23 23 20 19 17 19 22 21 9 11 15 6 6 9 20 23 23 18 12 12 20 9 9 8 4 4 6 15 9 10 2 6 6 14 14 29 15 24 25 26 29 35 37 38
23 21 19 17 14 15 19 23 15 5 20 10 17 16 23 22 23 22 19 12 6 2 3 5 4 13 16 13 10 4 2 1 0 3 4 17 21 16 13 21 19 27 32 39 42
21 19 15 13 10 13 12 9 9 11 13 9 13 18 17 16 13 25 16 4 6 4 3 4 12 6 3 6 8 6 1 3 5 9 5 5 14 10 7 10 20 27 31 33 42
21 18 13 10 9 12 6 11 13 13 4 13 14 12 11 19 12 17 9 3 1 2 4 7 5 4 6 5 5 5 8 3 6 7 12 9 16 15 12 17 27 33 35 36 40
23 19 13 6 7 17 4 14 15 6 3 6 8 5 19 25 2 30 8 7 4 6 3 5 6 5 6 5 7 4 6 2 1 3 6 3 12 14 13 19 15 20 31 37 34
24 18 13 8 11 14 15 18 7 2 4 10 5 12 31 5 16 9 24 9 8 6 2 9 5 2 4 6 7 12 11 9 6 6 3 1 5 14 4 13 15 19 35 39 40
25 19 10 5 9 14 17 17 3 5 5 6 9 11 12 11 12 11 14 10 5 3 6 17 4 6 7 6 4 1 5 4 3 3 7 6 7 25 10 16 12 13 28 33 35
24 13 4 1 7 15 19 3 4 4 5 6 8 11 15 5 8 5 9 7 3 4 4 3 7 7 5 4 0 3 4 2 1 2 11 14 9 24 5 5 5 3 15 18 20
17 7 5 4 7 14 17 4 4 4 5 6 9 17 5 6 7 7 7 6 4 3 3 3 4 5 6 9 7 6 8 4 6 5 5 7 12 11 12 21 21 15 18 20 20
14 5 5 5 8 13 9 4 6 3 4 7 12 3 4 6 3 6 4 3 4 4 4 3 4 15 3 5 11 4 4 6 2 1 0 4 11 11 13 18 14 4 14 21 22
15 4 5 6 9 12 4 2 3 4 7 7 4 3 5 6 6 5 3 2 4 4 5 4 4 2 13 1 5 7 6 4 2 4 5 4 5 8 7 6 6 8 12 29 34
11 1 7 6 10 3 3 4 4 7 5 4 4 5 5 5 4 4 5 5 1 3 4 4 2 2 2 2 3 3 1 2 4 4 4 2 5 7 6 6 3 7 16 28 35
8 2 6 9 3 2 1 4 7 5 7 4 4 4 4 4 5 5 5 3 1 2 5 3 1 4 4 5 3 4 4 1 5 5 7 3 7 3 7 7 8 13 24 32 31
11 4 6 6 2 3 5 4 5 4 4 3 4 3 3 3 6 5 7 5 11 1 2 3 2 4 6 3 3 1 3 5 1 1 5 5 7 4 9 13 17 20 28 32 17
8 4 4 6 3 2 4 4 6 11 6 5 5 4 2 4 8 6 9 8 6 2 15 4 3 4 4 0 2 5 5 3 4 3 6 18 13 20 21 15 19 29 28 30 14
8 2 2 4 3 5 4 4 7 7 4 8 4 5 10 8 14 15 5 5 10 20 6 3 5 4 8 12 12 13 14 13 12 10 8 5 7 4 18 15 17 26 28 29 10
7 5 4 7 12 5 4 3 8 8 6 9 5 16 15 11 14 21 15 7 6 6 3 2 4 5 8 12 15 16 15 16 18 16 19 16 20 6 21 19 21 28 26 22 14
10 5 3 5 5 3 3 4 9 14 10 13 15 15 14 14 18 30 32 32 18 8 4 2 2 1 4 3 6 9 18 20 18 19 11 17 11 7 16 9 16 23 24 19 18

GFSSW_850_spd_045.txt.gz
Wind_Speed
14 13 14 13 13 13 12 12 13 14 15 16 18 19 19 21 20 20 20 14 17 19 19 18 13 4 19 11 13 12 7 13 19 14 10 3 6 4 3 6 3 2 5 11 3
16 16 16 15 15 15 14 12 12 14 16 17 18 19 20 21 22 19 9 13 16 11 18 21 17 13 9 13 13 12 11 20 11 15 8 15 8 5 4 5 4 5 8 3 8
17 18 19 19 19 17 15 13 13 13 14 17 19 20 19 19 16 4 4 4 8 13 8 12 18 13 18 11 17 14 20 20 19 22 17 24 20 11 10 12 15 9 3 7 6
19 19 20 20 20 19 17 16 16 16 15 14 14 17 19 16 5 5 11 15 17 16 10 5 14 13 12 18 21 15 25 28 18 15 10 17 20 15 19 30 18 18 21 24 22
19 19 20 20 18 17 14 16 18 20 20 17 17 15 13 11 7 12 13 16 18 16 9 6 12 15 16 13 22 25 23 18 29 20 17 15 24 22 25 28 26 27 25 28 29
19 19 18 18 16 14 13 15 17 20 17 15 15 14 12 5 12 9 15 11 10 12 10 9 5 13 11 17 21 16 24 26 20 19 22 20 32 23 22 19 25 20 26 27 25
18 18 18 18 15 13 12 13 17 19 13 16 20 15 12 3 14 10 16 13 14 17 18 10 13 10 3 12 15 23 19 13 20 29 17 8 24 36 31 26 33 33 34 31 28
17 17 18 17 16 14 14 15 17 17 14 16 20 12 7 11 18 20 18 13 10 12 13 7 15 9 12 9 11 11 17 22 26 11 11 17 31 34 25 29 36 34 38 33 29
17 16 17 17 16 16 16 18 19 12 9 15 10 9 6 19 19 24 19 16 14 7 8 5 6 9 8 13 10 14 21 26 24 23 15 19 35 27 24 20 25 23 22 23 23
18 15 15 15 15 17 19 18 9 5 8 5 6 6 6 19 25 20 17 17 11 7 1 3 6 9 12 13 20 18 24 21 18 13 22 24 34 23 22 21 24 24 26 28 30
21 17 13 12 13 15 20 11 7 1 9 5 9 9 19 19 21 16 15 13 8 5 4 4 9 17 19 19 21 10 13 19 18 9 21 25 28 24 23 29 30 33 32 34 35
22 19 12 9 9 11 13 8 7 7 9 10 10 12 14 13 10 14 16 3 3 11 6 4 14 14 12 13 17 22 18 10 8 9 8 16 21 16 15 20 26 29 32 34 34
23 19 12 6 6 12 5 8 8 8 4 10 7 6 10 17 7 14 7 4 6 9 9 11 12 9 13 17 17 18 22 20 10 6 12 12 22 23 22 24 29 33 33 35 35
24 22 13 6 3 9 4 11 15 2 2 4 3 0 13 19 5 17 3 11 5 8 9 12 13 8 15 14 19 19 11 15 20 12 13 4 11 16 17 18 19 24 28 33 33
26 22 13 5 3 6 8 12 4 4 4 8 4 6 21 6 12 8 15 6 10 15 7 21 14 16 16 17 15 18 11 9 5 9 11 18 10 16 12 20 19 16 27 30 32
24 18 6 1 3 8 12 9 6 2 3 4 6 14 19 14 10 11 15 11 10 9 11 20 19 17 17 11 13 13 16 21 17 13 15 16 12 23 17 21 18 17 20 17 20
20 8 4 3 4 10 16 3 2 2 4 4 8 12 19 6 13 13 18 11 5 6 10 15 16 15 18 13 9 9 12 9 10 11 17 11 13 23 9 6 1 8 19 20 16
14 2 3 4 6 11 15 1 3 1 4 7 9 18 4 8 12 15 11 10 4 4 6 6 8 13 5 22 17 15 14 7 15 12 15 13 13 9 10 16 15 9 8 14 17
13 3 3 4 7 11 5 0 2 1 5 8 15 5 3 5 9 9 13 7 4 2 5 6 5 10 11 9 18 12 10 16 5 1 8 10 17 16 16 14 12 13 11 18 24
13 4 3 4 9 10 2 2 2 3 8 5 4 3 7 12 9 11 7 4 6 3 1 4 8 1 12 12 13 14 10 9 7 6 8 9 15 9 3 9 9 12 16 22 25
10 1 7 6 9 4 2 3 4 6 7 3 5 8 9 8 7 9 6 13 3 7 8 7 4 4 5 7 3 7 7 8 9 12 4 3 3 4 7 9 8 12 22 25 27
9 1 7 9 2 2 1 6 7 6 3 4 5 8 7 9 9 7 9 6 13 8 13 3 4 7 6 6 6 3 4 7 8 20 11 10 5 6 9 8 13 18 28 28 25
12 5 6 8 2 2 4 5 5 5 7 4 4 2 3 4 6 8 10 5 13 9 3 7 1 7 6 5 4 3 3 5 6 6 15 14 9 10 8 14 18 23 29 31 30
8 3 5 7 4 2 4 3 5 7 11 4 9 10 5 5 12 9 14 10 12 13 18 15 4 8 9 8 7 9 11 10 6 9 14 19 20 24 22 23 23 25 27 31 32
8 3 3 4 2 8 5 4 8 5 4 10 3 6 8 6 15 15 12 13 18 25 10 4 7 11 15 15 15 17 18 17 16 18 13 18 20 22 19 17 23 29 30 32 31
7 5 4 7 9 7 3 3 8 4 5 9 7 13 16 16 16 22 18 16 6 5 3 6 7 8 15 14 15 20 20 20 23 21 24 25 24 19 27 31 30 30 28 29 25
10 4 2 4 4 4 2 3 7 15 11 13 15 15 16 18 20 29 32 32 18 6 5 3 3 3 7 6 5 11 21 22 21 21 17 22 21 18 24 22 22 28 26 28 25

GFSSW_850_spd_048.txt.gz
Wind_Speed
15 15 15 14 13 13 12 13 13 14 14 14 14 14 15 15 14 13 9 12 10 13 16 13 9 8 13 20 20 17 13 17 23 19 13 7 15 19 12 12 10 4 3 3 6
15 15 15 15 15 14 12 12 12 13 14 14 13 12 12 13 15 6 3 4 1 5 9 11 16 15 19 21 18 20 17 26 18 14 9 19 18 12 8 17 16 10 8 6 6
15 15 15 16 15 14 12 11 12 14 15 16 14 13 13 14 5 0 5 5 10 8 5 7 14 19 25 21 30 26 26 22 24 19 17 23 22 17 16 16 19 15 12 4 2
15 15 16 16 14 14 12 13 13 15 14 12 12 15 15 9 3 2 14 16 15 14 5 5 10 21 22 26 27 27 30 33 33 21 15 21 23 28 28 25 22 11 12 15 14
14 14 15 15 13 12 11 13 15 17 15 13 13 14 13 3 4 6 11 11 7 6 8 8 12 17 25 20 30 29 29 31 31 30 22 23 28 25 28 29 26 26 23 24 23
14 14 14 14 12 12 10 13 14 17 14 15 16 15 6 5 9 7 14 10 6 7 6 9 11 13 18 26 26 25 29 36 35 25 27 27 31 26 35 30 30 29 29 29 26
16 15 14 13 12 12 11 11 14 16 15 13 16 12 2 6 13 11 12 10 10 6 9 9 14 14 6 15 27 30 27 26 26 34 29 24 29 36 39 33 32 26 28 29 29
16 14 14 13 11 12 13 15 15 14 9 10 10 7 3 11 18 15 12 12 11 9 8 8 9 18 22 19 21 17 23 25 34 26 28 26 30 37 37 34 33 35 32 32 33
18 14 12 10 11 12 16 18 13 8 6 10 6 3 2 8 14 13 12 11 14 11 8 7 7 17 17 18 17 21 24 31 30 28 24 21 37 34 42 30 29 30 30 30 29
20 18 14 12 12 12 17 16 10 4 8 4 4 2 3 11 17 16 8 12 10 10 11 10 10 12 14 16 22 27 27 28 28 23 27 28 35 29 28 17 31 33 32 31 29
21 19 15 11 9 12 16 11 6 2 6 6 4 6 8 15 15 10 9 10 9 10 13 13 11 14 17 20 26 25 27 26 21 21 27 29 35 30 31 36 31 31 32 33 34
23 19 16 11 7 11 11 4 3 6 8 7 6 6 8 7 15 11 12 7 9 12 11 10 16 16 13 17 21 23 26 30 20 17 21 26 31 27 27 29 35 35 35 35 34
26 21 17 9 6 6 3 4 5 7 7 4 5 7 5 12 12 11 13 9 14 16 14 15 16 11 11 14 20 24 25 24 27 17 22 20 27 26 23 24 27 32 34 34 34
27 24 16 6 1 4 2 5 10 1 5 5 5 3 6 16 9 13 4 12 14 17 15 16 13 14 15 20 18 21 22 25 24 22 20 20 21 23 24 28 28 34 36 35 34
26 20 12 2 3 2 3 9 5 2 4 2 2 3 12 10 10 2 10 10 16 18 14 19 19 17 17 19 20 22 19 24 20 21 24 30 18 18 18 21 22 20 26 29 31
25 12 6 4 3 2 8 6 4 5 0 0 3 9 11 11 5 9 14 14 14 15 15 19 20 18 22 21 24 22 18 21 20 18 20 27 23 20 20 22 19 17 22 23 17
22 6 1 2 1 7 9 1 5 5 2 2 8 12 16 8 10 9 14 11 7 9 11 15 10 10 15 17 20 17 17 12 17 19 18 20 19 18 7 7 7 1 7 10 9
19 2 2 1 3 8 5 6 5 2 5 10 10 17 7 9 8 13 11 12 4 9 12 8 12 3 5 16 20 20 19 14 20 17 22 26 22 17 21 23 29 17 5 6 7
13 2 1 3 5 9 8 4 2 5 5 9 16 8 3 5 9 12 12 7 5 7 9 12 8 17 3 12 19 21 19 21 24 20 15 19 25 24 14 10 10 10 6 5 10
10 2 1 5 7 4 5 3 3 3 8 8 12 4 12 14 11 10 10 4 8 2 7 12 18 11 2 6 20 23 19 14 13 15 17 15 22 12 21 24 12 5 3 8 12
7 4 3 6 6 3 2 4 6 5 8 6 9 13 13 11 10 12 6 13 3 10 15 15 9 16 12 2 10 12 17 10 15 13 16 12 13 16 7 12 11 4 8 13 18
7 3 5 8 3 2 4 7 6 3 3 9 8 10 10 12 11 13 12 9 19 15 18 9 7 12 17 7 10 2 9 7 11 14 17 16 4 5 18 13 6 5 11 17 20
10 4 6 5 2 4 5 7 4 5 6 5 7 7 12 15 7 8 14 10 18 15 6 8 4 10 9 6 11 6 10 13 13 7 15 15 8 12 9 4 7 14 16 18 22
6 3 2 4 3 5 8 2 4 2 11 5 11 15 11 10 13 10 18 10 14 16 15 14 9 13 14 17 6 10 10 12 12 11 16 17 20 13 14 13 14 20 19 24 24
6 2 3 4 2 9 7 6 7 5 4 13 6 7 10 10 18 19 10 20 22 25 18 6 13 15 17 19 17 16 18 17 19 19 19 18 18 18 18 17 16 22 25 24 20
6 5 6 13 8 8 1 3 7 5 9 10 11 12 14 17 16 23 20 18 7 12 11 6 10 12 17 17 17 20 20 21 22 22 18 22 25 24 25 29 25 23 20 19 20
4 5 3 7 5 5 2 5 10 14 10 10 10 14 18 19 22 29 30 29 18 11 13 8 8 8 13 10 10 12 16 17 21 20 18 21 21 20 20 21 20 22 20 20 19